﻿測定場所 (Monitoring sites),日付 (Measurement date),時間 (Measurement time),線量率 最大値 (max) μGy/h,線量率 最小値 (min) μGy/h,線量率 平均値 (average) μGy/h,
江戸川 (Edogawa),2013-03-03,23:01～24:00,0.0991,0.0881,0.0937,
江戸川 (Edogawa),2013-03-03,22:01～23:00,0.0987,0.0857,0.0934,
江戸川 (Edogawa),2013-03-03,21:01～22:00,0.0989,0.0894,0.0934,
江戸川 (Edogawa),2013-03-03,20:01～21:00,0.0988,0.0890,0.0935,
江戸川 (Edogawa),2013-03-03,19:01～20:00,0.0987,0.0880,0.0932,
江戸川 (Edogawa),2013-03-03,18:01～19:00,0.100,0.0870,0.0934,
江戸川 (Edogawa),2013-03-03,17:01～18:00,0.0998,0.0870,0.0941,
江戸川 (Edogawa),2013-03-03,16:01～17:00,0.101,0.0884,0.0941,
江戸川 (Edogawa),2013-03-03,15:01～16:00,0.100,0.0855,0.0937,
江戸川 (Edogawa),2013-03-03,14:01～15:00,0.0990,0.0867,0.0930,
江戸川 (Edogawa),2013-03-03,13:01～14:00,0.101,0.0881,0.0928,
江戸川 (Edogawa),2013-03-03,12:01～13:00,0.0972,0.0849,0.0913,
江戸川 (Edogawa),2013-03-03,11:01～12:00,0.0978,0.0853,0.0907,
江戸川 (Edogawa),2013-03-03,10:01～11:00,0.0978,0.0880,0.0927,
江戸川 (Edogawa),2013-03-03,09:01～10:00,0.0975,0.0871,0.0923,
江戸川 (Edogawa),2013-03-03,08:01～09:00,0.0980,0.0860,0.0922,
江戸川 (Edogawa),2013-03-03,07:01～08:00,0.0974,0.0841,0.0924,
江戸川 (Edogawa),2013-03-03,06:01～07:00,0.0996,0.0869,0.0929,
江戸川 (Edogawa),2013-03-03,05:01～06:00,0.0985,0.0866,0.0925,
江戸川 (Edogawa),2013-03-03,04:01～05:00,0.0980,0.0871,0.0923,
江戸川 (Edogawa),2013-03-03,03:01～04:00,0.0984,0.0870,0.0926,
江戸川 (Edogawa),2013-03-03,02:01～03:00,0.0996,0.0868,0.0928,
江戸川 (Edogawa),2013-03-03,01:01～02:00,0.0992,0.0865,0.0930,
江戸川 (Edogawa),2013-03-03,00:01～01:00,0.100,0.0869,0.0935,
江戸川 (Edogawa),2013-03-02,23:01～24:00,0.100,0.0888,0.0932,
江戸川 (Edogawa),2013-03-02,22:01～23:00,0.0979,0.0865,0.0936,
江戸川 (Edogawa),2013-03-02,21:01～22:00,0.0985,0.0863,0.0931,
江戸川 (Edogawa),2013-03-02,20:01～21:00,0.0989,0.0877,0.0921,
江戸川 (Edogawa),2013-03-02,19:01～20:00,0.0990,0.0882,0.0929,
江戸川 (Edogawa),2013-03-02,18:01～19:00,0.0986,0.0876,0.0931,
江戸川 (Edogawa),2013-03-02,17:01～18:00,0.100,0.0865,0.0930,
江戸川 (Edogawa),2013-03-02,16:01～17:00,0.100,0.0876,0.0937,
江戸川 (Edogawa),2013-03-02,15:01～16:00,0.0996,0.0880,0.0941,
江戸川 (Edogawa),2013-03-02,14:01～15:00,0.101,0.0874,0.0943,
江戸川 (Edogawa),2013-03-02,13:01～14:00,0.100,0.0890,0.0941,
江戸川 (Edogawa),2013-03-02,12:01～13:00,0.0981,0.0841,0.0940,
江戸川 (Edogawa),2013-03-02,11:01～12:00,0.102,0.0869,0.0938,
江戸川 (Edogawa),2013-03-02,10:01～11:00,0.101,0.0871,0.0937,
江戸川 (Edogawa),2013-03-02,09:01～10:00,0.0997,0.0870,0.0927,
江戸川 (Edogawa),2013-03-02,08:01～09:00,0.0992,0.0872,0.0920,
江戸川 (Edogawa),2013-03-02,07:01～08:00,0.0979,0.0867,0.0919,
江戸川 (Edogawa),2013-03-02,06:01～07:00,0.0967,0.0874,0.0915,
江戸川 (Edogawa),2013-03-02,05:01～06:00,0.0975,0.0870,0.0923,
江戸川 (Edogawa),2013-03-02,04:01～05:00,0.0961,0.0863,0.0917,
江戸川 (Edogawa),2013-03-02,03:01～04:00,0.0980,0.0855,0.0919,
江戸川 (Edogawa),2013-03-02,02:01～03:00,0.0982,0.0863,0.0917,
江戸川 (Edogawa),2013-03-02,01:01～02:00,0.0991,0.0844,0.0921,
江戸川 (Edogawa),2013-03-02,00:01～01:00,0.0991,0.0885,0.0933,
江戸川 (Edogawa),2013-03-01,23:01～24:00,0.106,0.0914,0.0980,
江戸川 (Edogawa),2013-03-01,22:01～23:00,0.115,0.0993,0.108,
江戸川 (Edogawa),2013-03-01,21:01～22:00,0.116,0.0945,0.104,
江戸川 (Edogawa),2013-03-01,20:01～21:00,0.112,0.0948,0.102,
江戸川 (Edogawa),2013-03-01,19:01～20:00,0.105,0.0888,0.0949,
江戸川 (Edogawa),2013-03-01,18:01～19:00,0.0999,0.0878,0.0935,
江戸川 (Edogawa),2013-03-01,17:01～18:00,0.0987,0.0872,0.0936,
江戸川 (Edogawa),2013-03-01,16:01～17:00,0.0988,0.0878,0.0934,
江戸川 (Edogawa),2013-03-01,15:01～16:00,0.0981,0.0875,0.0932,
江戸川 (Edogawa),2013-03-01,14:01～15:00,0.0997,0.0876,0.0935,
江戸川 (Edogawa),2013-03-01,13:01～14:00,0.103,0.0874,0.0936,
江戸川 (Edogawa),2013-03-01,12:01～13:00,0.0996,0.0885,0.0935,
江戸川 (Edogawa),2013-03-01,11:01～12:00,0.100,0.0888,0.0940,
江戸川 (Edogawa),2013-03-01,10:01～11:00,0.100,0.0877,0.0939,
江戸川 (Edogawa),2013-03-01,09:01～10:00,0.0991,0.0881,0.0934,
江戸川 (Edogawa),2013-03-01,08:01～09:00,0.0999,0.0861,0.0922,
江戸川 (Edogawa),2013-03-01,07:01～08:00,0.0981,0.0876,0.0925,
江戸川 (Edogawa),2013-03-01,06:01～07:00,0.0996,0.0866,0.0922,
江戸川 (Edogawa),2013-03-01,05:01～06:00,0.100,0.0864,0.0930,
江戸川 (Edogawa),2013-03-01,04:01～05:00,0.0983,0.0877,0.0929,
江戸川 (Edogawa),2013-03-01,03:01～04:00,0.100,0.0863,0.0933,
江戸川 (Edogawa),2013-03-01,02:01～03:00,0.0969,0.0859,0.0928,
江戸川 (Edogawa),2013-03-01,01:01～02:00,0.100,0.0867,0.0933,
江戸川 (Edogawa),2013-03-01,00:01～01:00,0.0992,0.0877,0.0930,
江戸川 (Edogawa),2013-02-28,23:01～24:00,0.100,0.0863,0.0927,
江戸川 (Edogawa),2013-02-28,22:01～23:00,0.0987,0.0863,0.0933,
江戸川 (Edogawa),2013-02-28,21:01～22:00,0.0977,0.0857,0.0925,
江戸川 (Edogawa),2013-02-28,20:01～21:00,0.0985,0.0877,0.0932,
江戸川 (Edogawa),2013-02-28,19:01～20:00,0.0992,0.0866,0.0931,
江戸川 (Edogawa),2013-02-28,18:01～19:00,0.100,0.0875,0.0926,
江戸川 (Edogawa),2013-02-28,17:01～18:00,0.0992,0.0879,0.0934,
江戸川 (Edogawa),2013-02-28,16:01～17:00,0.0996,0.0884,0.0945,
江戸川 (Edogawa),2013-02-28,15:01～16:00,0.101,0.0892,0.0946,
江戸川 (Edogawa),2013-02-28,14:01～15:00,0.0990,0.0901,0.0949,
江戸川 (Edogawa),2013-02-28,13:01～14:00,0.0995,0.0900,0.0952,
江戸川 (Edogawa),2013-02-28,12:01～13:00,0.0999,0.0872,0.0947,
江戸川 (Edogawa),2013-02-28,11:01～12:00,0.0999,0.0899,0.0946,
江戸川 (Edogawa),2013-02-28,10:01～11:00,0.0985,0.0861,0.0933,
江戸川 (Edogawa),2013-02-28,09:01～10:00,0.100,0.0873,0.0927,
江戸川 (Edogawa),2013-02-28,08:01～09:00,0.0991,0.0865,0.0927,
江戸川 (Edogawa),2013-02-28,07:01～08:00,0.0976,0.0874,0.0920,
江戸川 (Edogawa),2013-02-28,06:01～07:00,0.101,0.0856,0.0929,
江戸川 (Edogawa),2013-02-28,05:01～06:00,0.0996,0.0874,0.0924,
江戸川 (Edogawa),2013-02-28,04:01～05:00,0.0984,0.0880,0.0924,
江戸川 (Edogawa),2013-02-28,03:01～04:00,0.0980,0.0876,0.0921,
江戸川 (Edogawa),2013-02-28,02:01～03:00,0.0996,0.0867,0.0923,
江戸川 (Edogawa),2013-02-28,01:01～02:00,0.0968,0.0867,0.0915,
江戸川 (Edogawa),2013-02-28,00:01～01:00,0.0968,0.0870,0.0916,
江戸川 (Edogawa),2013-02-27,23:01～24:00,0.100,0.0879,0.0923,
江戸川 (Edogawa),2013-02-27,22:01～23:00,0.0969,0.0859,0.0917,
江戸川 (Edogawa),2013-02-27,21:01～22:00,0.0979,0.0858,0.0918,
江戸川 (Edogawa),2013-02-27,20:01～21:00,0.0984,0.0855,0.0916,
江戸川 (Edogawa),2013-02-27,19:01～20:00,0.0966,0.0853,0.0915,
江戸川 (Edogawa),2013-02-27,18:01～19:00,0.0976,0.0872,0.0922,
江戸川 (Edogawa),2013-02-27,17:01～18:00,0.0983,0.0880,0.0928,
江戸川 (Edogawa),2013-02-27,16:01～17:00,0.0976,0.0866,0.0921,
江戸川 (Edogawa),2013-02-27,15:01～16:00,0.0967,0.0878,0.0920,
江戸川 (Edogawa),2013-02-27,14:01～15:00,0.0969,0.0840,0.0916,
江戸川 (Edogawa),2013-02-27,13:01～14:00,0.0971,0.0844,0.0914,
江戸川 (Edogawa),2013-02-27,12:01～13:00,0.0996,0.0854,0.0928,
江戸川 (Edogawa),2013-02-27,11:01～12:00,0.0970,0.0867,0.0928,
江戸川 (Edogawa),2013-02-27,10:01～11:00,0.0987,0.0884,0.0934,
江戸川 (Edogawa),2013-02-27,09:01～10:00,0.101,0.0890,0.0949,
江戸川 (Edogawa),2013-02-27,08:01～09:00,0.101,0.0889,0.0946,
江戸川 (Edogawa),2013-02-27,07:01～08:00,0.104,0.0936,0.0987,
江戸川 (Edogawa),2013-02-27,06:01～07:00,0.105,0.0926,0.0993,
江戸川 (Edogawa),2013-02-27,05:01～06:00,0.102,0.0907,0.0978,
江戸川 (Edogawa),2013-02-27,04:01～05:00,0.104,0.0918,0.0971,
江戸川 (Edogawa),2013-02-27,03:01～04:00,0.103,0.0894,0.0965,
江戸川 (Edogawa),2013-02-27,02:01～03:00,0.101,0.0896,0.0959,
江戸川 (Edogawa),2013-02-27,01:01～02:00,0.101,0.0878,0.0952,
江戸川 (Edogawa),2013-02-27,00:01～01:00,0.0982,0.0885,0.0935,
江戸川 (Edogawa),2013-02-26,23:01～24:00,0.0999,0.0884,0.0943,
江戸川 (Edogawa),2013-02-26,22:01～23:00,0.0997,0.0875,0.0944,
江戸川 (Edogawa),2013-02-26,21:01～22:00,0.101,0.0878,0.0938,
江戸川 (Edogawa),2013-02-26,20:01～21:00,0.0997,0.0886,0.0943,
江戸川 (Edogawa),2013-02-26,19:01～20:00,0.0993,0.0874,0.0934,
江戸川 (Edogawa),2013-02-26,18:01～19:00,0.0999,0.0898,0.0937,
江戸川 (Edogawa),2013-02-26,17:01～18:00,0.0991,0.0871,0.0937,
江戸川 (Edogawa),2013-02-26,16:01～17:00,0.100,0.0873,0.0941,
江戸川 (Edogawa),2013-02-26,15:01～16:00,0.0968,0.0866,0.0926,
江戸川 (Edogawa),2013-02-26,14:01～15:00,0.101,0.0875,0.0941,
江戸川 (Edogawa),2013-02-26,13:01～14:00,0.100,0.0893,0.0952,
江戸川 (Edogawa),2013-02-26,12:01～13:00,0.102,0.0907,0.0951,
江戸川 (Edogawa),2013-02-26,11:01～12:00,0.101,0.0866,0.0949,
江戸川 (Edogawa),2013-02-26,10:01～11:00,0.0987,0.0881,0.0939,
江戸川 (Edogawa),2013-02-26,09:01～10:00,0.0994,0.0894,0.0941,
江戸川 (Edogawa),2013-02-26,08:01～09:00,0.0990,0.0873,0.0935,
江戸川 (Edogawa),2013-02-26,07:01～08:00,0.0997,0.0857,0.0932,
江戸川 (Edogawa),2013-02-26,06:01～07:00,0.0997,0.0879,0.0930,
江戸川 (Edogawa),2013-02-26,05:01～06:00,0.100,0.0879,0.0929,
江戸川 (Edogawa),2013-02-26,04:01～05:00,0.0996,0.0857,0.0930,
江戸川 (Edogawa),2013-02-26,03:01～04:00,0.0993,0.0872,0.0929,
江戸川 (Edogawa),2013-02-26,02:01～03:00,0.101,0.0857,0.0932,
江戸川 (Edogawa),2013-02-26,01:01～02:00,0.0994,0.0877,0.0933,
江戸川 (Edogawa),2013-02-26,00:01～01:00,0.0998,0.0865,0.0934,
江戸川 (Edogawa),2013-02-25,23:01～24:00,0.101,0.0858,0.0929,
江戸川 (Edogawa),2013-02-25,22:01～23:00,0.0981,0.0873,0.0928,
江戸川 (Edogawa),2013-02-25,21:01～22:00,0.0970,0.0875,0.0930,
江戸川 (Edogawa),2013-02-25,20:01～21:00,0.0995,0.0887,0.0928,
江戸川 (Edogawa),2013-02-25,19:01～20:00,0.0983,0.0883,0.0925,
江戸川 (Edogawa),2013-02-25,18:01～19:00,0.0967,0.0862,0.0929,
江戸川 (Edogawa),2013-02-25,17:01～18:00,0.0980,0.0868,0.0930,
江戸川 (Edogawa),2013-02-25,16:01～17:00,0.100,0.0878,0.0935,
江戸川 (Edogawa),2013-02-25,15:01～16:00,0.0993,0.0895,0.0941,
江戸川 (Edogawa),2013-02-25,14:01～15:00,0.100,0.0903,0.0946,
江戸川 (Edogawa),2013-02-25,13:01～14:00,0.0989,0.0888,0.0937,
江戸川 (Edogawa),2013-02-25,12:01～13:00,0.0985,0.0880,0.0935,
江戸川 (Edogawa),2013-02-25,11:01～12:00,0.0993,0.0876,0.0935,
江戸川 (Edogawa),2013-02-25,10:01～11:00,0.100,0.0883,0.0933,
江戸川 (Edogawa),2013-02-25,09:01～10:00,0.0990,0.0865,0.0926,
江戸川 (Edogawa),2013-02-25,08:01～09:00,0.0972,0.0872,0.0932,
江戸川 (Edogawa),2013-02-25,07:01～08:00,0.101,0.0856,0.0919,
江戸川 (Edogawa),2013-02-25,06:01～07:00,0.100,0.0862,0.0923,
江戸川 (Edogawa),2013-02-25,05:01～06:00,0.100,0.0880,0.0932,
江戸川 (Edogawa),2013-02-25,04:01～05:00,0.101,0.0854,0.0930,
江戸川 (Edogawa),2013-02-25,03:01～04:00,0.100,0.0873,0.0930,
江戸川 (Edogawa),2013-02-25,02:01～03:00,0.0975,0.0885,0.0927,
江戸川 (Edogawa),2013-02-25,01:01～02:00,0.100,0.0864,0.0938,
江戸川 (Edogawa),2013-02-25,00:01～01:00,0.0993,0.0858,0.0929,
